Regional Weather Roundup
Issued by NWS Mt. Holly, NJ

Home | Current Version | Previous Version | Text Only | Print | Product List | Glossary On
Versions: 1 2 3 4 5 6 7 8 9 10 11 12 13 14 15 16 17 18 19 20 21 22 23 24 25 26 27
000
ASUS41 KPHI 270312
RWRPHI

REGIONAL WEATHER ROUNDUP
NATIONAL WEATHER SERVICE MOUNT HOLLY NJ
1100 PM EDT MON JUN 26 2017

NOTE:  "FAIR" INDICATES FEW OR NO CLOUDS BELOW 12,000 FEET WITH NO
SIGNIFICANT WEATHER AND/OR OBSTRUCTIONS TO VISIBILITY.

 * = STATION DOES NOT REPORT PRECIPITATION (E.G. RAIN, SNOW, ETC.)
        OR FOG.

NJZ015>026-270400-
SOUTHERN NEW JERSEY

CITY           SKY/WX    TMP DP  RH WIND       PRES   REMARKS
POMONA         CLEAR     69  59  70 S7        30.01S
WILDWOOD*      CLEAR     67  61  81 S7        30.02S
MILLVILLE      CLEAR     62  59  90 CALM      30.00F
WRIGHTSTOWN    CLEAR     63  52  67 S6        30.01R
MOUNT HOLLY      N/A     62  53  72 CALM      29.99F
TRENTON        CLEAR     68  50  52 CALM      29.99S

$$
NJZ001>014-270400-
NORTHERN NEW JERSEY

CITY           SKY/WX    TMP DP  RH WIND       PRES   REMARKS
SUSSEX         CLEAR     57  54  89 CALM      30.00R
ANDOVER*         N/A     59  52  77 CALM      30.00S
MORRISTOWN     CLEAR     57  55  94 CALM      29.99S
NEWARK         PTCLDY    71  48  43 SW10      29.98R
TETERBORO      CLEAR     71  48  43 W6        29.97S
CALDWELL       CLEAR     68  50  52 CALM      29.99S
SOMERVILLE     CLEAR     59  55  87 CALM      29.97S
ALLAIRE*       CLEAR     67  51  56 S5        30.01S
TOMS RIVER*    CLEAR     60  52  74 CALM      30.02R

$$
PAZ043-044-047-054-055-060>062-066>071-270400-
EASTERN PENNSYLVANIA

CITY           SKY/WX    TMP DP  RH WIND       PRES   REMARKS
PHILADELPHIA   CLEAR     71  51  49 S6        29.99F
NORTH PHILA    CLEAR     72  50  45 S5        30.00F
BLUE BELL*     CLEAR     59  54  82 CALM      30.01S
DOYLESTOWN     CLEAR     65  52  62 CALM      29.99S
QUAKERTOWN*    CLEAR     59  54  82 CALM      30.01S
PERKASIE*      FAIR      55  55 100 CALM      30.01S
POTTSTOWN      PTCLDY    61  54  77 CALM      30.01S
LANCASTER      CLOUDY    66  57  72 W9        30.02R
COATESVILLE    PTCLDY    66  48  52 CALM      30.02S
READING        CLOUDY    65  57  75 NW14      30.01R
ALLENTOWN      CLEAR     64  51  62 SW6       29.99R
MOUNT POCONO   CLEAR     59  48  67 SW3       30.03R
HAZLETON       RAIN      55  50  82 SW3       30.10R
LEHIGHTON      CLOUDY    59  54  82 W8        30.05R
WILKES BARRE   LGT RAIN  60  53  77 N5        30.05R

$$
DEZALL-MDZ008-012-015-019-020-270400-
DELAWARE AND EASTERN MARYLAND

CITY           SKY/WX    TMP DP  RH WIND       PRES   REMARKS
WILMINGTON     CLEAR     71  50  47 S3        30.00S
DOVER          CLEAR     68  59  74 SE7       29.99S
GEORGETOWN     CLEAR     68  57  68 SW6       30.02S
EASTON         CLEAR     71  57  60 S7        30.04S
PATUXENT       PTCLDY    73  59  61 S8        30.00S
OCEAN CITY     PTCLDY    72  62  71 SW8       30.03S
WALLOPS ISLAND PTCLDY    69  64  84 S6        30.03S
CAMBRIDGE      CLEAR     66  61  82 SE6       30.01S
SALISBURY      PTCLDY    67  59  75 CALM      30.02S

$$
PAZ001-021-NYZ056-072-MDZ011-DCZ001-270400-
OTHER NEARBY LOCATIONS

CITY           SKY/WX    TMP DP  RH WIND       PRES   REMARKS
HARRISBURG     CLOUDY    63  61  93 N3        30.00S
STATE COLLEGE  CLEAR     58  50  74 CALM      30.04R
WILLIAMSPORT   MOCLDY    61  54  77 NW5       30.01S
BINGHAMTON     LGT RAIN  54  52  93 CALM      30.00F
NEW YORK CITY  CLEAR     73  46  38 VRB3      30.01R
BALTIMORE      PTCLDY    71  57  61 S3        29.98S
WASHINGTON DC  MOCLDY    75  61  61 S13       29.99S

$$




USA.gov is the U.S. government's official web portal to all federal, state and local government web resources and services.